Location: B?dargowo
(53.3916°N, 14.4413°E)
Time: 06:58:36
(UTC+00:00)

Cosmos 1655 Rocket - Visible Passes

Search period start: 24 September 2023 00:00
Search period end: 04 October 2023 00:00
Orbit: 971 x 1005 km, 82.9° (Epoch: 23 September)

Date Brightness Start Highest point End Pass type
(mag) Time Alt. Az. Time Alt. Az. Time Alt. Az.
24 Sep 5.9 01:50:04 10° SE 01:55:18 28° E 02:00:35 10° NNE visible
24 Sep 4.1 03:34:07 10° SSW 03:40:29 68° WNW 03:46:54 10° N visible
25 Sep 5.0 02:18:06 10° SSE 02:24:08 46° E 02:30:13 10° NNE visible
25 Sep 4.5 04:03:54 10° SW 04:09:54 41° WNW 04:15:58 10° N visible
26 Sep 6.5 01:04:39 10° ESE 01:08:33 17° ENE 01:12:26 10° NE visible
26 Sep 4.2 02:46:47 10° S 02:53:09 77° E 02:59:35 10° NNE visible
27 Sep 5.8 01:31:52 10° SE 01:37:10 29° E 01:42:31 10° NNE visible
27 Sep 4.1 03:16:02 10° SSW 03:22:23 66° WNW 03:28:47 10° N visible
28 Sep 4.9 02:00:09 11° SSE 02:06:01 48° E 02:12:07 10° NNE visible
28 Sep 4.5 03:45:52 10° SW 03:51:50 40° WNW 03:57:50 10° N visible
29 Sep 6.4 00:46:23 10° ESE 00:50:24 18° ENE 00:54:25 10° NE visible
29 Sep 4.1 02:30:01 17° S 02:35:03 80° E 02:41:29 10° NNE visible
29 Sep 5.1 04:16:18 10° WSW 04:21:29 25° WNW 04:26:41 10° N visible
30 Sep 5.6 01:14:48 15° SE 01:19:02 30° E 01:24:27 10° NNE visible
30 Sep 4.0 02:59:48 20° SSW 03:04:18 63° WNW 03:10:41 10° N visible
01 Oct 6.8 00:03:24 10° ENE 00:03:48 10° ENE 00:04:11 10° ENE visible
01 Oct 4.8 01:44:30 26° SSE 01:47:54 50° E 01:54:03 10° NNE visible
01 Oct 4.6 03:29:29 18° SW 03:33:45 39° WNW 03:39:42 10° N visible
02 Oct 6.2 00:29:10 13° ESE 00:32:15 18° ENE 00:36:24 10° NE visible
02 Oct 4.0 02:14:08 36° S 02:16:57 83° E 02:23:24 10° NNE visible
02 Oct 5.1 03:59:07 13° WSW 04:03:26 24° WNW 04:08:34 10° N visible
03 Oct 5.5 00:58:45 25° ESE 01:00:55 31° E 01:06:22 10° NNE visible
03 Oct 4.1 02:43:44 37° SW 02:46:12 61° WNW 02:52:34 10° N visible
03 Oct 5.6 04:29:39 10° W 04:33:20 16° NW 04:37:02 10° NNW visible
03 Oct 6.6 23:44:27 10° E 23:45:38 11° ENE 23:46:49 10° ENE visible
